| time (UTC) | temp F | wind direction | speed MPH | gust MPH | rain 1hr in | rain 24hr in | rain mn in | humidity % | barometer mb |
| 20260504194140 | 67 | 270 | 5.0 | 18.0 | 0.00 | 0.00 | 0.00 | 43 | 1005.4 |
| 20260504193020 | 66 | 270 | 4.0 | 16.0 | 0.00 | 0.00 | 0.00 | 44 | 1005.6 |
| 20260504192016 | 66 | 293 | 3.0 | 11.0 | 0.00 | 0.00 | 0.00 | 44 | 1005.7 |
| 20260504191020 | 66 | 293 | 3.0 | 10.0 | 0.00 | 0.00 | 0.00 | 46 | 1005.8 |
| 20260504190040 | 67 | 270 | 3.0 | 9.0 | 0.00 | 0.00 | 0.00 | 44 | 1005.8 |
| 20260504185020 | 66 | 270 | 3.0 | 9.0 | 0.00 | 0.00 | 0.00 | 47 | 1005.7 |
| 20260504184020 | 65 | 270 | 3.0 | 9.0 | 0.00 | 0.00 | 0.00 | 50 | 1005.9 |
| 20260504183020 | 65 | 270 | 2.0 | 6.0 | 0.00 | 0.00 | 0.00 | 50 | 1005.9 |
| 20260504182016 | 65 | 270 | 3.0 | 7.0 | 0.00 | 0.00 | 0.00 | 50 | 1006.0 |
| 20260504181016 | 64 | 293 | 1.0 | 7.0 | 0.00 | 0.00 | 0.00 | 54 | 1006.0 |
| 20260504180040 | 64 | 293 | 2.0 | 5.0 | 0.00 | 0.00 | 0.00 | 51 | 1006.0 |
| 20260504175020 | 62 | 293 | 2.0 | 6.0 | 0.00 | 0.00 | 0.00 | 52 | 1006.0 |
| 20260504174020 | 60 | 248 | 1.0 | 4.0 | 0.00 | 0.00 | 0.00 | 57 | 1006.0 |
| 20260504173020 | 58 | 0.0 | 3.0 | 0.00 | 0.00 | 0.00 | 59 | 1006.2 | |
| 20260504172020 | 57 | 0.0 | 0.0 | 0.00 | 0.00 | 0.00 | 59 | 1006.2 | |
| 20260504171016 | 57 | 270 | 1.0 | 4.0 | 0.00 | 0.00 | 0.00 | 56 | 1006.3 |
| 20260504151101 | 58 | 270 | 2.0 | 8.0 | 0.00 | 0.00 | 0.00 | 54 | 1006.5 |
| 20260504141040 | 58 | 225 | 2.0 | 7.0 | 0.00 | 0.00 | 0.00 | 54 | 1006.8 |
| 20260504081020 | 41 | 0.0 | 2.0 | 0.00 | 0.01 | 0.00 | 79 | 1008.1 | |
| 20260504050020 | 33 | 0.0 | 3.0 | 0.00 | 0.01 | 0.00 | 87 | 1007.8 | |
| 20260504045020 | 33 | 0.0 | 0.0 | 0.00 | 0.01 | 0.00 | 87 | 1007.9 | |
| 20260504044016 | 33 | 0.0 | 0.0 | 0.00 | 0.01 | 0.00 | 86 | 1008.0 | |
| 20260504043040 | 32 | 0.0 | 0.0 | 0.00 | 0.01 | 0.00 | 88 | 1008.0 | |
| 20260504042020 | 32 | 0.0 | 0.0 | 0.00 | 0.01 | 0.00 | 87 | 1008.1 | |
| 20260504041100 | 32 | 0.0 | 0.0 | 0.00 | 0.01 | 0.00 | 86 | 1007.9 | |
| 20260504040040 | 32 | 0.0 | 0.0 | 0.00 | 0.01 | 0.01 | 85 | 1007.9 | |
| 20260504035017 | 33 | 0.0 | 0.0 | 0.00 | 0.01 | 0.01 | 84 | 1007.8 | |
| 20260504034021 | 33 | 0.0 | 0.0 | 0.00 | 0.01 | 0.01 | 82 | 1007.8 | |
| 20260504033023 | 34 | 0.0 | 0.0 | 0.00 | 0.01 | 0.01 | 81 | 1007.9 | |
| 20260504032021 | 34 | 0.0 | 4.0 | 0.00 | 0.01 | 0.01 | 80 | 1007.8 | |
| 20260504031021 | 34 | 0.0 | 0.0 | 0.00 | 0.01 | 0.01 | 80 | 1007.9 | |
| 20260504030022 | 35 | 0.0 | 0.0 | 0.00 | 0.01 | 0.01 | 79 | 1007.8 | |
| 20260504025017 | 36 | 0.0 | 0.0 | 0.00 | 0.01 | 0.01 | 77 | 1007.8 | |
| 20260504024017 | 36 | 0.0 | 0.0 | 0.00 | 0.01 | 0.01 | 76 | 1007.8 | |
| 20260504023021 | 36 | 0.0 | 0.0 | 0.00 | 0.01 | 0.01 | 75 | 1007.9 | |
| 20260504022021 | 37 | 0.0 | 0.0 | 0.00 | 0.01 | 0.01 | 75 | 1008.0 | |
| 20260504021021 | 37 | 0.0 | 0.0 | 0.00 | 0.01 | 0.01 | 74 | 1008.0 | |
| 20260504020041 | 38 | 0.0 | 0.0 | 0.00 | 0.01 | 0.01 | 74 | 1007.9 | |
| 20260504015021 | 38 | 0.0 | 0.0 | 0.00 | 0.01 | 0.01 | 74 | 1008.0 | |
| 20260504014017 | 38 | 0.0 | 0.0 | 0.00 | 0.01 | 0.01 | 74 | 1007.8 | |
| 20260504013021 | 39 | 0.0 | 0.0 | 0.00 | 0.01 | 0.01 | 75 | 1007.8 | |
| 20260504012021 | 39 | 0.0 | 0.0 | 0.00 | 0.01 | 0.01 | 73 | 1007.7 | |
| 20260504011021 | 39 | 293 | 1.0 | 3.0 | 0.00 | 0.01 | 0.01 | 72 | 1007.5 |
| 20260504010022 | 40 | 0.0 | 1.0 | 0.00 | 0.01 | 0.01 | 70 | 1007.5 | |
| 20260504005021 | 40 | 0.0 | 0.0 | 0.00 | 0.01 | 0.01 | 71 | 1007.4 | |
| 20260504004021 | 41 | 0.0 | 0.0 | 0.00 | 0.02 | 0.01 | 67 | 1007.4 | |
| 20260504003017 | 42 | 0.0 | 0.0 | 0.00 | 0.02 | 0.01 | 68 | 1007.4 | |
| 20260504002041 | 43 | 0.0 | 0.0 | 0.00 | 0.03 | 0.01 | 63 | 1007.3 | |
| 20260504001021 | 44 | 0.0 | 0.0 | 0.00 | 0.03 | 0.01 | 60 | 1007.2 | |
| 20260504000021 | 45 | 0.0 | 0.0 | 0.00 | 0.04 | 0.01 | 59 | 1007.1 | |
| 20260503235021 | 46 | 0.0 | 1.0 | 0.00 | 0.05 | 0.01 | 56 | 1007.1 | |
| 20260503234019 | 46 | 0.0 | 2.0 | 0.00 | 0.11 | 0.01 | 54 | 1007.0 | |
| 20260503233021 | 47 | 0.0 | 5.0 | 0.00 | 0.11 | 0.01 | 53 | 1007.0 | |
| 20260503232037 | 47 | 0.0 | 2.0 | 0.00 | 0.11 | 0.01 | 54 | 1006.9 | |
| 20260503231041 | 48 | 293 | 1.0 | 3.0 | 0.00 | 0.11 | 0.01 | 53 | 1006.9 |
| 20260503230022 | 48 | 315 | 1.0 | 5.0 | 0.00 | 0.11 | 0.01 | 51 | 1006.9 |
| 20260503225021 | 48 | 0.0 | 3.0 | 0.00 | 0.11 | 0.01 | 52 | 1006.9 | |
| 20260503224021 | 48 | 293 | 2.0 | 9.0 | 0.00 | 0.11 | 0.01 | 51 | 1006.8 |
| 20260503223021 | 49 | 315 | 3.0 | 10.0 | 0.00 | 0.11 | 0.01 | 51 | 1006.8 |
| 20260503222021 | 49 | 315 | 1.0 | 5.0 | 0.00 | 0.11 | 0.01 | 52 | 1006.8 |
| 20260503221037 | 48 | 293 | 3.0 | 9.0 | 0.00 | 0.11 | 0.01 | 52 | 1006.7 |
| 20260503220021 | 48 | 338 | 2.0 | 7.0 | 0.00 | 0.11 | 0.01 | 54 | 1006.7 |
| 20260503215042 | 49 | 293 | 1.0 | 4.0 | 0.00 | 0.11 | 0.01 | 53 | 1006.6 |
| 20260503214021 | 48 | 270 | 1.0 | 5.0 | 0.00 | 0.11 | 0.01 | 55 | 1006.7 |
| 20260503213042 | 48 | 315 | 1.0 | 7.0 | 0.00 | 0.11 | 0.01 | 53 | 1006.7 |
| 20260503212021 | 48 | 293 | 1.0 | 5.0 | 0.00 | 0.11 | 0.01 | 53 | 1006.8 |
| 20260503211017 | 49 | 315 | 3.0 | 8.0 | 0.00 | 0.11 | 0.01 | 50 | 1006.6 |
| 20260503210017 | 49 | 293 | 2.0 | 8.0 | 0.00 | 0.11 | 0.01 | 52 | 1006.4 |
| 20260503205021 | 48 | 293 | 2.0 | 8.0 | 0.00 | 0.11 | 0.01 | 51 | 1006.3 |
| 20260503204021 | 48 | 293 | 3.0 | 10.0 | 0.00 | 0.11 | 0.01 | 51 | 1006.4 |
| 20260503203021 | 48 | 293 | 3.0 | 10.0 | 0.00 | 0.11 | 0.01 | 52 | 1006.3 |
| 20260503202021 | 49 | 293 | 2.0 | 8.0 | 0.00 | 0.11 | 0.01 | 52 | 1006.3 |
| 20260503201021 | 49 | 293 | 2.0 | 6.0 | 0.00 | 0.11 | 0.01 | 52 | 1006.3 |
| 20260503200021 | 49 | 293 | 2.0 | 9.0 | 0.00 | 0.11 | 0.01 | 51 | 1006.2 |
| 20260503195038 | 49 | 270 | 1.0 | 3.0 | 0.00 | 0.11 | 0.01 | 52 | 1006.3 |